#timestamp,LO_Frequency,Hit,StdDev 
1652983215.3,286046998.7,N
1652983235.1,286047001.2,N
1652983255.9,286046998.7,N
1652983275.7,286046998.4,N
1652983295.6,286046998.7,N
1652983315.4,286047000.4,N
1652983335.2,286046998.1,N
1652983355.1,286046998.8,N
1652983356.0,286046998.8,N
1652983375.8,286046996.6,N
1652983395.6,286046999.5,N
1652983415.5,286046996.5,N
1652983435.3,286047000.1,N
1652983455.2,286047001.2,N
1652983475.9,286047001.1,N
1652983495.7,286047001.2,N
1652983515.6,286047001.1,N
1652983535.4,286047000.6,N
1652983555.2,286047000.9,N
1652983575.1,286047001.0,N
1652983576.0,286047001.0,N
1652983595.8,286047001.0,N
1652983615.7,286046998.4,N
1652983635.5,286047000.7,N
1652983655.3,286047000.9,N
1652983675.2,286047002.8,N
1652983695.0,286047000.4,N
1652983725.9,286046999.7,E
1652983735.9,286047002.3,N
1652983755.7,286047002.8,P
1652983775.5,286047000.1,N
1652983795.4,286047002.2,N
1652983815.2,286047001.4,N
1652983835.0,286047001.3,N
1652983835.9,286047001.3,N
1652983855.8,286047002.1,N
1652983875.6,286047002.2,N
1652983895.5,286047002.2,N
1652983915.3,286046999.7,N
1652983935.1,286046999.9,N
1652983955.9,286047000.9,N
1652983975.7,286047000.5,N
1652983995.5,286046999.8,N
1652984015.4,286047000.4,N
1652984035.2,286047001.9,N
1652984055.1,286047001.4,N
1652984056.0,286047001.4,N
1652984075.8,286047001.7,N
1652984095.6,286047002.1,N
1652984115.5,286047002.0,N
1652984135.3,286047002.4,N
1652984155.1,286047002.1,N
1652984175.9,286047002.8,Y
1652984195.7,286047000.7,P
1652984215.6,286047000.5,N
1652984235.4,286047000.6,N
1652984255.2,286047000.7,N
1652984275.1,286046999.8,N
1652984276.0,286046999.8,N
1652984295.8,286047000.5,N
1652984315.6,286047001.0,N
1652984335.5,286047000.9,N
1652984355.3,286046998.7,N
1652984375.2,286046998.6,N
1652984395.9,286046999.3,N
1652984415.7,286046999.1,N
1652984435.6,286046998.7,N
1652984455.4,286046998.1,N
1652984475.3,286046997.0,Y
1652984495.1,286046999.3,P
1652984496.0,286046999.3,N
1652984515.8,286046998.9,P
1652984535.7,286046998.8,Y
1652984555.5,286046998.1,P
1652984575.4,286047000.7,N
1652984595.2,286047000.6,N
1652984615.0,286047000.9,N
1652984615.9,286047000.9,N
1652984635.8,286047001.1,N
1652984655.6,286047000.6,N
1652984675.5,286046999.9,N
1652984695.3,286047000.5,N
1652984715.1,286047000.7,N
1652984735.9,286047002.8,Y
1652984755.7,286047002.8,P
1652984775.5,286047000.2,N
1652984795.4,286047000.1,N
1652984815.2,286046999.9,N
1652984835.1,286047000.4,N
1652984836.0,286047000.4,N
1652984855.8,286047000.4,N
1652984875.6,286047000.6,N
1652984895.5,286046999.9,N
1652984915.3,286047000.9,N
1652984935.2,286046999.8,N
1652984955.9,286047002.3,N
1652984975.7,286047000.6,N
1652984995.6,286047001.1,N
1652985015.4,286046999.1,N
1652985035.2,286046998.0,N
1652985055.1,286046997.6,N
1652985056.0,286046997.6,N
1652985075.8,286046995.2,Y
1652985095.7,286046994.9,P
1652985115.5,286046995.3,N
1652985135.3,286046995.0,N
1652985155.2,286046995.0,N
1652985175.0,286046995.4,N
1652985175.9,286046995.4,N
1652985195.7,286046995.0,N
1652985215.6,286046996.8,N
1652985235.4,286046999.6,N
1652985255.3,286046996.6,N
1652985275.1,286046998.1,N
1652985276.0,286046998.1,N
1652985295.8,286046998.1,N
1652985315.7,286046998.7,N
1652985335.5,286046998.4,N
1652985355.3,286046998.3,N
1652985375.2,286046998.1,N
1652985395.0,286046998.2,N
1652985395.9,286046998.2,N
1652985415.8,286046999.0,N
1652985435.6,286046998.5,N
1652985455.4,286046998.3,N
1652985475.3,286047000.6,N
1652985495.1,286047000.5,N
1652985515.8,286046998.4,N
1652985535.7,286046998.9,N
1652985555.5,286046998.9,N
1652985575.4,286046999.1,N
1652985595.2,286046998.7,N
1652985615.0,286046999.3,N
1652985615.9,286046999.3,N
1652985635.8,286046999.6,N
1652985655.6,286046996.9,N
1652985675.4,286046997.1,N
1652985695.3,286046997.3,N
1652985715.1,286046995.4,Y
1652985735.9,286046999.0,P
1652985755.7,286046998.7,P
1652985775.5,286046999.0,P
1652985795.4,286046998.6,Y
1652985815.2,286046999.9,P
1652985835.0,286047000.6,N
1652985835.9,286047000.6,N
1652985855.8,286047001.2,N
1652985875.6,286047001.0,N
1652985895.5,286047000.0,N
1652985915.3,286047002.4,Y
1652985935.1,286047000.5,P
1652985955.9,286047000.0,N
1652985975.7,286047000.8,P
1652985995.6,286047001.0,Y
1652986015.4,286047001.0,P
1652986035.2,286046998.2,P
1652986055.1,286047001.1,N
1652986056.0,286047001.1,N
1652986075.8,286046998.2,N
1652986095.7,286046998.9,N
1652986115.5,286046998.4,N
1652986135.3,286046998.3,N
1652986155.2,286046996.6,N
1652986175.9,286046997.1,N
1652986195.7,286046996.9,N
1652986215.6,286046997.6,N
1652986235.4,286046998.0,N
1652986255.2,286046997.8,N
1652986275.1,286046996.6,N
1652986276.0,286046996.6,N
1652986295.8,286046997.8,N
1652986315.7,286046997.3,N
1652986335.5,286046997.7,N
1652986355.3,286046996.7,N
1652986375.2,286046997.1,N
1652986395.0,286046997.9,N
1652986395.9,286046997.9,N
1652986415.8,286046995.8,Y
1652986435.6,286046995.5,P
1652986455.4,286046995.8,P
1652986475.3,286046995.7,P
1652986495.1,286046995.0,Y
1652986515.8,286046999.8,P
1652986535.7,286047002.3,N
1652986555.5,286047001.9,N
1652986575.4,286047003.3,N
1652986595.2,286047003.7,N
1652986615.0,286047004.1,N
1652986615.9,286047004.1,N
1652986635.8,286047004.0,N
1652986655.6,286047001.6,N
1652986675.4,286047003.7,N
1652986695.3,286047004.1,N
1652986715.1,286047001.8,N
1652986735.9,286047001.5,N
1652986755.7,286047002.2,N
1652986775.5,286047002.5,N
1652986795.4,286046999.8,N
